Location: Unspecified
(41.5516°N, 88.1098°W)
Time: 19:56:50
(UTC-06:00)

Hubble Space Telescope - Visible Passes

Search period start: 27 February 2015 00:00
Search period end: 09 March 2015 01:00
Orbit: 543 x 548 km, 28.5° (Epoch: 26 February)

Date Brightness Start Highest point End Pass type
(mag) Time Alt. Az. Time Alt. Az. Time Alt. Az.
27 Feb 3.2 04:50:52 11° S 04:52:05 12° S 04:53:42 10° SSE visible
28 Feb 3.1 04:43:10 12° S 04:43:46 13° S 04:45:40 10° SSE visible
01 Mar 3.1 04:35:27 13° S 04:35:27 13° S 04:37:29 10° SSE visible
02 Mar 3.1 04:27:43 13° S 04:27:43 13° S 04:29:11 10° SSE visible
03 Mar 3.3 04:19:59 12° SSE 04:19:59 12° SSE 04:20:48 10° SSE visible
04 Mar 3.5 04:12:17 10° SSE 04:12:17 10° SSE 04:12:18 10° SSE visible
